RYR2NWQ LGAV-LIRF

Flight info

Callsign RYR2NWQ
Flight time 1h 55m
Altitude 28000
Route KOR UL53 IXONI DCT OLGAT DCT TOPNO DCT DOGUS DCT EKTOL DCT AMSOR DCT IPKAM DCT TEA DCT SIPRO DCT LAT
Aircraft B38M/M-SDE1FGHILORVWXY/HB1

Departure

Time 2026-05-06 11:55
Airport Athens Eleftherios Venizelos International Airport (LGAV)

Arrival

Time 2026-05-06 13:50
Airport Rome–Fiumicino Leonardo da Vinci International Airport (LIRF)
Time Latitude Longitude Altitude Speed Heading
2026-05-06 11:54 38.00415 23.98680 3700 ft 214 kts 15°
2026-05-06 11:55 38.01841 23.99266 4439 ft 217 kts 20°
2026-05-06 11:55 38.03211 24.00047 5195 ft 221 kts 26°
2026-05-06 11:55 38.04510 24.01028 5894 ft 224 kts 32°
2026-05-06 11:55 38.05755 24.02249 6649 ft 225 kts 40°
2026-05-06 11:56 38.06808 24.03605 7337 ft 225 kts 48°
2026-05-06 11:56 38.07739 24.05239 8085 ft 223 kts 58°
2026-05-06 11:56 38.08406 24.06933 8805 ft 221 kts 67°
2026-05-06 11:56 38.08843 24.08815 9567 ft 217 kts 78°
2026-05-06 11:57 38.09010 24.10683 10308 ft 208 kts 81°
2026-05-06 11:57 38.09180 24.12467 10877 ft 211 kts 82°
2026-05-06 11:57 38.09162 24.14408 11108 ft 224 kts 100°
2026-05-06 11:57 38.08557 24.16231 11238 ft 233 kts 127°
2026-05-06 11:58 38.07344 24.17629 11413 ft 246 kts 152°
2026-05-06 11:58 38.05626 24.18374 11539 ft 278 kts 175°
2026-05-06 11:58 38.03616 24.18084 11669 ft 308 kts 204°
2026-05-06 11:58 38.01853 24.16458 12068 ft 324 kts 234°
2026-05-06 11:59 38.00812 24.13869 12556 ft 339 kts 253°
2026-05-06 11:59 37.99885 24.11015 13015 ft 361 kts 247°
2026-05-06 11:59 37.98787 24.08047 13408 ft 382 kts 247°
2026-05-06 11:59 37.97674 24.05012 13794 ft 367 kts 248°
2026-05-06 12:00 37.96673 24.02141 13987 ft 345 kts 249°
2026-05-06 12:00 37.95739 23.99449 14158 ft 324 kts 249°
2026-05-06 12:00 37.94836 23.96875 14293 ft 320 kts 249°
2026-05-06 12:00 37.93919 23.94303 14402 ft 320 kts 248°
2026-05-06 12:01 37.93619 23.93471 14444 ft 321 kts 248°
2026-05-06 12:01 37.93022 23.91823 14522 ft 321 kts 248°
2026-05-06 12:01 37.92100 23.89290 14641 ft 321 kts 248°
2026-05-06 12:01 37.91151 23.86687 14752 ft 321 kts 248°
2026-05-06 12:02 37.90530 23.84989 14831 ft 321 kts 248°
2026-05-06 12:02 37.89353 23.81673 14977 ft 320 kts 255°
2026-05-06 12:02 37.89065 23.78865 15092 ft 313 kts 276°
2026-05-06 12:02 37.89178 23.76115 15224 ft 314 kts 275°
2026-05-06 12:03 37.89280 23.73349 15336 ft 315 kts 275°
2026-05-06 12:03 37.89358 23.71479 15413 ft 315 kts 275°
2026-05-06 12:03 37.89482 23.68743 15531 ft 315 kts 276°
2026-05-06 12:03 37.89614 23.65976 15646 ft 315 kts 276°
2026-05-06 12:04 37.89750 23.63201 15761 ft 316 kts 276°
2026-05-06 12:04 37.89888 23.60423 15874 ft 316 kts 276°
2026-05-06 12:04 37.90026 23.57649 15993 ft 316 kts 276°
2026-05-06 12:04 37.90164 23.54870 16110 ft 316 kts 276°
2026-05-06 12:05 37.90302 23.52081 16230 ft 317 kts 276°
2026-05-06 12:05 37.90439 23.49293 16348 ft 317 kts 276°
2026-05-06 12:05 37.90575 23.46510 16467 ft 317 kts 276°
2026-05-06 12:05 37.90712 23.43718 16590 ft 318 kts 276°
2026-05-06 12:06 37.90847 23.40921 16712 ft 318 kts 276°
2026-05-06 12:06 37.90982 23.38118 16827 ft 319 kts 276°
2026-05-06 12:06 37.91116 23.35317 16947 ft 319 kts 276°
2026-05-06 12:06 37.91251 23.32508 17070 ft 319 kts 276°
2026-05-06 12:07 37.91385 23.29693 17185 ft 320 kts 276°
2026-05-06 12:07 37.91516 23.26915 17312 ft 320 kts 276°
2026-05-06 12:07 37.91649 23.24096 17434 ft 320 kts 276°
2026-05-06 12:07 37.91782 23.21241 17554 ft 321 kts 276°
2026-05-06 12:08 37.91912 23.18455 17681 ft 321 kts 276°
2026-05-06 12:08 37.92043 23.15626 17803 ft 322 kts 276°
2026-05-06 12:08 37.92174 23.12794 17920 ft 322 kts 276°
2026-05-06 12:08 37.92304 23.09958 18053 ft 323 kts 276°
2026-05-06 12:09 37.92433 23.07118 18179 ft 323 kts 275°
2026-05-06 12:09 37.92563 23.04271 18301 ft 324 kts 276°
2026-05-06 12:09 37.92692 23.01423 18419 ft 324 kts 276°
2026-05-06 12:09 37.92820 22.98573 18527 ft 325 kts 276°
2026-05-06 12:10 37.92971 22.95723 18628 ft 324 kts 280°
2026-05-06 12:10 37.93651 22.93075 18736 ft 320 kts 300°
2026-05-06 12:10 37.94841 22.90687 18842 ft 321 kts 303°
2026-05-06 12:10 37.96062 22.88308 18950 ft 322 kts 304°
2026-05-06 12:11 37.97315 22.85945 19056 ft 323 kts 304°
2026-05-06 12:11 37.98581 22.83593 19164 ft 323 kts 305°
2026-05-06 12:11 37.99859 22.81241 19272 ft 324 kts 305°
2026-05-06 12:11 38.01141 22.78895 19394 ft 324 kts 305°
2026-05-06 12:12 38.02433 22.76538 19491 ft 325 kts 306°
2026-05-06 12:12 38.03722 22.74187 19593 ft 325 kts 305°
2026-05-06 12:12 38.05016 22.71828 19710 ft 326 kts 306°
2026-05-06 12:12 38.06311 22.69467 19826 ft 326 kts 306°
2026-05-06 12:13 38.07608 22.67100 19936 ft 327 kts 306°
2026-05-06 12:13 38.08907 22.64730 20052 ft 327 kts 306°
2026-05-06 12:13 38.10205 22.62360 20163 ft 328 kts 306°
2026-05-06 12:13 38.11508 22.59978 20274 ft 328 kts 306°
2026-05-06 12:14 38.12810 22.57596 20395 ft 329 kts 306°
2026-05-06 12:14 38.14114 22.55209 20501 ft 329 kts 306°
2026-05-06 12:14 38.15416 22.52826 20606 ft 330 kts 306°
2026-05-06 12:14 38.16727 22.50422 20727 ft 330 kts 306°
2026-05-06 12:15 38.18035 22.48023 20846 ft 330 kts 306°
2026-05-06 12:15 38.19328 22.45649 20954 ft 331 kts 306°
2026-05-06 12:15 38.20640 22.43240 21072 ft 331 kts 306°
2026-05-06 12:15 38.21951 22.40829 21190 ft 332 kts 306°
2026-05-06 12:16 38.23266 22.38411 21302 ft 332 kts 306°
2026-05-06 12:16 38.24580 22.35992 21424 ft 333 kts 306°
2026-05-06 12:16 38.25896 22.33567 21534 ft 333 kts 306°
2026-05-06 12:16 38.27216 22.31134 21653 ft 334 kts 306°
2026-05-06 12:17 38.28535 22.28700 21772 ft 334 kts 306°
2026-05-06 12:17 38.29858 22.26258 21893 ft 335 kts 306°
2026-05-06 12:17 38.31187 22.23810 22005 ft 335 kts 307°
2026-05-06 12:17 38.32648 22.21491 22132 ft 335 kts 310°
2026-05-06 12:18 38.34099 22.19208 22246 ft 336 kts 309°
2026-05-06 12:18 38.35565 22.16883 22370 ft 337 kts 310°
2026-05-06 12:18 38.37031 22.14547 22469 ft 338 kts 309°
2026-05-06 12:18 38.38497 22.12205 22601 ft 338 kts 309°
2026-05-06 12:19 38.39966 22.09855 22722 ft 339 kts 309°
2026-05-06 12:19 38.41436 22.07501 22842 ft 340 kts 309°
2026-05-06 12:19 38.42912 22.05137 22963 ft 341 kts 309°
2026-05-06 12:19 38.44387 22.02772 23094 ft 341 kts 309°
2026-05-06 12:20 38.45864 22.00400 23221 ft 341 kts 309°
2026-05-06 12:20 38.47340 21.98030 23339 ft 342 kts 309°
2026-05-06 12:20 38.48822 21.95648 23469 ft 342 kts 309°
2026-05-06 12:20 38.50305 21.93264 23556 ft 344 kts 309°
2026-05-06 12:21 38.51791 21.90872 23676 ft 344 kts 309°
2026-05-06 12:21 38.53279 21.88475 23788 ft 345 kts 309°
2026-05-06 12:21 38.54770 21.86071 23893 ft 345 kts 309°
2026-05-06 12:21 38.56262 21.83664 23993 ft 346 kts 309°
2026-05-06 12:22 38.57759 21.81247 24109 ft 346 kts 309°
2026-05-06 12:22 38.59255 21.78831 24199 ft 346 kts 308°
2026-05-06 12:22 38.60752 21.76412 24314 ft 347 kts 309°
2026-05-06 12:22 38.62251 21.73985 24411 ft 349 kts 308°
2026-05-06 12:23 38.63757 21.71547 24531 ft 350 kts 308°
2026-05-06 12:23 38.65269 21.69098 24628 ft 350 kts 308°
2026-05-06 12:23 38.66761 21.66678 24722 ft 351 kts 308°
2026-05-06 12:23 38.68275 21.64221 24823 ft 352 kts 308°
2026-05-06 12:24 38.69790 21.61761 24941 ft 352 kts 308°
2026-05-06 12:24 38.71309 21.59291 25054 ft 352 kts 308°
2026-05-06 12:24 38.72827 21.56823 25160 ft 354 kts 308°
2026-05-06 12:24 38.74351 21.54342 25279 ft 355 kts 308°
2026-05-06 12:25 38.75878 21.51854 25384 ft 356 kts 308°
2026-05-06 12:25 38.77408 21.49360 25493 ft 356 kts 308°
2026-05-06 12:25 38.78942 21.46856 25622 ft 357 kts 308°
2026-05-06 12:25 38.80473 21.44357 25721 ft 358 kts 308°
2026-05-06 12:26 38.82019 21.41831 25831 ft 359 kts 308°
2026-05-06 12:26 38.83561 21.39309 25954 ft 360 kts 308°
2026-05-06 12:26 38.85105 21.36782 26065 ft 361 kts 308°
2026-05-06 12:26 38.86655 21.34242 26179 ft 361 kts 307°
2026-05-06 12:27 38.88186 21.31732 26292 ft 361 kts 307°
2026-05-06 12:27 38.89735 21.29192 26409 ft 362 kts 307°
2026-05-06 12:27 38.91288 21.26643 26525 ft 361 kts 307°
2026-05-06 12:27 38.92833 21.24103 26645 ft 361 kts 307°
2026-05-06 12:28 38.94382 21.21556 26762 ft 361 kts 307°
2026-05-06 12:28 38.95927 21.19013 26870 ft 361 kts 307°
2026-05-06 12:28 38.97470 21.16470 26998 ft 361 kts 307°
2026-05-06 12:28 38.99016 21.13922 27114 ft 361 kts 307°
2026-05-06 12:29 39.00557 21.11380 27236 ft 361 kts 307°
2026-05-06 12:29 39.02099 21.08834 27356 ft 361 kts 307°
2026-05-06 12:29 39.03640 21.06289 27475 ft 360 kts 307°
2026-05-06 12:29 39.05179 21.03743 27597 ft 360 kts 307°
2026-05-06 12:30 39.06717 21.01198 27718 ft 360 kts 307°
2026-05-06 12:30 39.08254 20.98652 27838 ft 360 kts 307°
2026-05-06 12:30 39.09788 20.96109 27957 ft 360 kts 306°
2026-05-06 12:30 39.11303 20.93597 28085 ft 360 kts 306°
2026-05-06 12:31 39.14365 20.88510 28118 ft 359 kts 306°
2026-05-06 12:31 39.17428 20.83415 28126 ft 359 kts 306°
2026-05-06 12:32 39.20486 20.78320 28111 ft 359 kts 306°
2026-05-06 12:32 39.23539 20.73226 28109 ft 359 kts 306°
2026-05-06 12:33 39.26589 20.68126 28104 ft 359 kts 306°
2026-05-06 12:33 39.29642 20.63015 28112 ft 359 kts 306°
2026-05-06 12:34 39.32674 20.57931 28094 ft 359 kts 306°
2026-05-06 12:34 39.35721 20.52813 28094 ft 359 kts 306°
2026-05-06 12:35 39.38766 20.47690 28106 ft 360 kts 306°
2026-05-06 12:35 39.41811 20.42560 28105 ft 359 kts 306°
2026-05-06 12:36 39.44854 20.37424 28107 ft 360 kts 306°
2026-05-06 12:36 39.47899 20.32276 28103 ft 360 kts 306°
2026-05-06 12:37 39.50941 20.27126 28092 ft 360 kts 305°
2026-05-06 12:37 39.53974 20.21982 28087 ft 360 kts 305°
2026-05-06 12:38 39.56992 20.16856 28103 ft 359 kts 305°
2026-05-06 12:38 39.60023 20.11698 28095 ft 359 kts 305°
2026-05-06 12:39 39.63049 20.06542 28097 ft 359 kts 305°
2026-05-06 12:39 39.66078 20.01371 28103 ft 359 kts 305°
2026-05-06 12:40 39.69098 19.96208 28100 ft 359 kts 305°
2026-05-06 12:40 39.72120 19.91032 28098 ft 359 kts 305°
2026-05-06 12:41 39.75139 19.85854 28106 ft 359 kts 304°
2026-05-06 12:41 39.78136 19.80704 28105 ft 359 kts 304°
2026-05-06 12:42 39.81148 19.75520 28102 ft 359 kts 304°
2026-05-06 12:42 39.84164 19.70320 28096 ft 359 kts 304°
2026-05-06 12:43 39.87176 19.65121 28099 ft 360 kts 304°
2026-05-06 12:43 39.90185 19.59916 28097 ft 360 kts 304°
2026-05-06 12:44 39.93193 19.54704 28097 ft 360 kts 304°
2026-05-06 12:44 39.96192 19.49500 28099 ft 360 kts 304°
2026-05-06 12:45 39.99185 19.44299 28095 ft 360 kts 304°
2026-05-06 12:46 40.03687 19.36457 28093 ft 360 kts 304°
2026-05-06 12:46 40.06683 19.31229 28094 ft 360 kts 304°
2026-05-06 12:47 40.09681 19.25991 28092 ft 360 kts 304°
2026-05-06 12:47 40.12676 19.20748 28092 ft 360 kts 304°
2026-05-06 12:48 40.15668 19.15504 28091 ft 360 kts 304°
2026-05-06 12:48 40.18656 19.10257 28093 ft 359 kts 304°
2026-05-06 12:49 40.21637 19.05015 28090 ft 359 kts 304°
2026-05-06 12:49 40.24487 18.99712 28072 ft 356 kts 292°
2026-05-06 12:50 40.26083 18.93607 28088 ft 355 kts 288°
2026-05-06 12:50 40.27703 18.87489 28079 ft 355 kts 287°
2026-05-06 12:51 40.29290 18.81364 28081 ft 355 kts 287°
2026-05-06 12:51 40.30603 18.76266 28081 ft 355 kts 287°
2026-05-06 12:52 40.32179 18.70130 28080 ft 355 kts 287°
2026-05-06 12:52 40.34003 18.63003 28074 ft 355 kts 287°
2026-05-06 12:53 40.35316 18.57864 28077 ft 355 kts 287°
2026-05-06 12:53 40.36869 18.51770 28074 ft 355 kts 287°
2026-05-06 12:54 40.38430 18.45625 28070 ft 355 kts 287°
2026-05-06 12:54 40.39989 18.39475 28067 ft 355 kts 286°
2026-05-06 12:55 40.41532 18.33373 28067 ft 355 kts 286°
2026-05-06 12:55 40.43084 18.27222 28065 ft 355 kts 286°
2026-05-06 12:56 40.44632 18.21067 28067 ft 355 kts 286°
2026-05-06 12:56 40.46178 18.14908 28063 ft 355 kts 286°
2026-05-06 12:57 40.47721 18.08742 28050 ft 355 kts 286°
2026-05-06 12:57 40.49251 18.02611 28049 ft 355 kts 286°
2026-05-06 12:58 40.50790 17.96430 28048 ft 355 kts 286°
2026-05-06 12:58 40.52326 17.90246 28049 ft 355 kts 286°
2026-05-06 12:59 40.53856 17.84073 28049 ft 355 kts 286°
2026-05-06 12:59 40.55373 17.77931 28049 ft 355 kts 285°
2026-05-06 13:00 40.56900 17.71732 28046 ft 356 kts 285°
2026-05-06 13:00 40.58422 17.65541 28046 ft 355 kts 285°
2026-05-06 13:01 40.59941 17.59342 28044 ft 355 kts 285°
2026-05-06 13:01 40.61446 17.53188 28048 ft 355 kts 285°
2026-05-06 13:02 40.62957 17.46991 28041 ft 355 kts 285°
2026-05-06 13:02 40.64462 17.40801 28047 ft 355 kts 285°
2026-05-06 13:03 40.65964 17.34609 28054 ft 355 kts 285°
2026-05-06 13:03 40.67462 17.28415 28044 ft 355 kts 285°
2026-05-06 13:04 40.68958 17.22217 28040 ft 354 kts 285°
2026-05-06 13:04 40.70436 17.16071 28041 ft 354 kts 285°
2026-05-06 13:05 40.71925 17.09869 28044 ft 359 kts 285°
2026-05-06 13:05 40.72660 17.06800 28045 ft 370 kts 285°
2026-05-06 13:05 40.73443 17.03526 28042 ft 382 kts 285°
2026-05-06 13:06 40.75069 16.96711 28042 ft 396 kts 285°
2026-05-06 13:06 40.76713 16.89802 28048 ft 397 kts 284°
2026-05-06 13:07 40.78312 16.83062 28049 ft 397 kts 284°
2026-05-06 13:07 40.79925 16.76242 28044 ft 396 kts 284°
2026-05-06 13:08 40.81533 16.69425 28037 ft 396 kts 284°
2026-05-06 13:08 40.83124 16.62658 27998 ft 395 kts 284°
2026-05-06 13:08 40.83919 16.59270 27995 ft 395 kts 284°
2026-05-06 13:09 40.84710 16.55895 27995 ft 395 kts 284°
2026-05-06 13:09 40.85475 16.52622 27998 ft 394 kts 284°
2026-05-06 13:09 40.86297 16.49103 27993 ft 394 kts 284°
2026-05-06 13:09 40.87080 16.45746 27994 ft 394 kts 284°
2026-05-06 13:10 40.87874 16.42338 28000 ft 394 kts 284°
2026-05-06 13:10 40.88668 16.38923 27993 ft 394 kts 284°
2026-05-06 13:10 40.89465 16.35493 27996 ft 393 kts 284°
2026-05-06 13:10 40.90252 16.32103 28000 ft 393 kts 284°
2026-05-06 13:11 40.91011 16.28827 27998 ft 393 kts 284°
2026-05-06 13:11 40.91830 16.25289 27997 ft 393 kts 284°
2026-05-06 13:11 40.92588 16.22009 27998 ft 393 kts 284°
2026-05-06 13:11 40.93382 16.18567 27997 ft 393 kts 284°
2026-05-06 13:12 40.94185 16.15084 27994 ft 393 kts 284°
2026-05-06 13:12 40.94971 16.11657 27998 ft 393 kts 283°
2026-05-06 13:12 40.95565 16.08187 27997 ft 391 kts 279°
2026-05-06 13:12 40.96118 16.04851 27983 ft 391 kts 280°
2026-05-06 13:13 40.96717 16.01310 28000 ft 391 kts 280°
2026-05-06 13:13 40.97315 15.97814 27990 ft 391 kts 280°
2026-05-06 13:13 40.97911 15.94338 27998 ft 391 kts 280°
2026-05-06 13:13 40.98512 15.90830 27996 ft 391 kts 280°
2026-05-06 13:14 40.99085 15.87484 27994 ft 390 kts 280°
2026-05-06 13:14 40.99680 15.84002 27993 ft 390 kts 280°
2026-05-06 13:14 41.00266 15.80562 27990 ft 390 kts 280°
2026-05-06 13:14 41.00858 15.77089 27993 ft 390 kts 280°
2026-05-06 13:15 41.01444 15.73637 27988 ft 390 kts 280°
2026-05-06 13:15 41.02024 15.70203 27983 ft 389 kts 280°
2026-05-06 13:15 41.02599 15.66759 27989 ft 389 kts 280°
2026-05-06 13:15 41.03178 15.63292 27988 ft 390 kts 280°
2026-05-06 13:16 41.03760 15.59802 27990 ft 389 kts 280°
2026-05-06 13:16 41.04339 15.56320 27991 ft 389 kts 280°
2026-05-06 13:16 41.04920 15.52821 27983 ft 389 kts 280°
2026-05-06 13:16 41.05499 15.49329 27978 ft 389 kts 280°
2026-05-06 13:17 41.06068 15.45884 27995 ft 390 kts 280°
2026-05-06 13:17 41.06640 15.42418 27983 ft 389 kts 279°
2026-05-06 13:17 41.07201 15.39011 27992 ft 389 kts 279°
2026-05-06 13:17 41.07743 15.35715 27974 ft 389 kts 279°
2026-05-06 13:18 41.08326 15.32159 27992 ft 389 kts 279°
2026-05-06 13:18 41.08879 15.28788 27991 ft 389 kts 279°
2026-05-06 13:18 41.09440 15.25351 27987 ft 388 kts 279°
2026-05-06 13:18 41.10001 15.21916 27991 ft 388 kts 279°
2026-05-06 13:19 41.10564 15.18456 27992 ft 388 kts 279°
2026-05-06 13:19 41.11133 15.15007 27993 ft 389 kts 279°
2026-05-06 13:19 41.11681 15.11675 27989 ft 389 kts 279°
2026-05-06 13:19 41.12244 15.08251 27992 ft 389 kts 279°
2026-05-06 13:20 41.12817 15.04753 27996 ft 388 kts 279°
2026-05-06 13:20 41.13389 15.01251 27994 ft 388 kts 279°
2026-05-06 13:20 41.13952 14.97806 27987 ft 388 kts 279°
2026-05-06 13:20 41.14518 14.94331 27993 ft 388 kts 279°
2026-05-06 13:21 41.15071 14.90934 27991 ft 388 kts 279°
2026-05-06 13:21 41.15638 14.87420 27994 ft 388 kts 278°
2026-05-06 13:21 41.16183 14.83937 27997 ft 388 kts 278°
2026-05-06 13:22 41.17238 14.77191 27997 ft 388 kts 278°
2026-05-06 13:22 41.17795 14.73621 27995 ft 387 kts 278°
2026-05-06 13:22 41.18336 14.70149 27982 ft 388 kts 278°
2026-05-06 13:22 41.18886 14.66609 27896 ft 388 kts 278°
2026-05-06 13:23 41.19441 14.63110 27635 ft 387 kts 278°
2026-05-06 13:23 41.19992 14.59620 27408 ft 385 kts 278°
2026-05-06 13:23 41.20539 14.56151 27171 ft 383 kts 278°
2026-05-06 13:23 41.21083 14.52690 26944 ft 382 kts 278°
2026-05-06 13:24 41.21625 14.49236 26713 ft 381 kts 278°
2026-05-06 13:24 41.22165 14.45793 26478 ft 381 kts 278°
2026-05-06 13:24 41.22703 14.42351 26261 ft 380 kts 278°
2026-05-06 13:24 41.23239 14.38916 26034 ft 379 kts 278°
2026-05-06 13:25 41.23771 14.35499 25818 ft 378 kts 278°
2026-05-06 13:25 41.24302 14.32077 25596 ft 378 kts 278°
2026-05-06 13:25 41.24826 14.28698 25376 ft 377 kts 278°
2026-05-06 13:25 41.25353 14.25291 25159 ft 377 kts 278°
2026-05-06 13:26 41.25878 14.21890 25015 ft 375 kts 278°
2026-05-06 13:26 41.26403 14.18481 25020 ft 376 kts 278°
2026-05-06 13:26 41.26927 14.15076 25020 ft 377 kts 278°
2026-05-06 13:26 41.27450 14.11664 25015 ft 377 kts 278°
2026-05-06 13:27 41.27973 14.08251 25014 ft 377 kts 278°
2026-05-06 13:27 41.28494 14.04838 25011 ft 377 kts 278°
2026-05-06 13:27 41.29015 14.01427 25014 ft 376 kts 278°
2026-05-06 13:27 41.29583 13.98025 25009 ft 379 kts 284°
2026-05-06 13:28 41.30794 13.94880 25013 ft 387 kts 301°
2026-05-06 13:28 41.32370 13.91967 25009 ft 387 kts 299°
2026-05-06 13:28 41.33873 13.88987 25012 ft 388 kts 299°
2026-05-06 13:28 41.35392 13.86008 25012 ft 388 kts 299°
2026-05-06 13:29 41.36897 13.83072 24955 ft 389 kts 300°
2026-05-06 13:29 41.38410 13.80126 24719 ft 387 kts 300°
2026-05-06 13:29 41.39950 13.77127 24492 ft 386 kts 300°
2026-05-06 13:29 41.41443 13.74218 24279 ft 386 kts 300°
2026-05-06 13:30 41.42954 13.71271 24059 ft 385 kts 300°
2026-05-06 13:30 41.44340 13.68249 23826 ft 378 kts 289°
2026-05-06 13:30 41.44972 13.64908 23622 ft 371 kts 274°
2026-05-06 13:30 41.45389 13.61510 23383 ft 372 kts 277°
2026-05-06 13:31 41.45848 13.58123 23134 ft 371 kts 277°
2026-05-06 13:31 41.46292 13.54738 22886 ft 370 kts 277°
2026-05-06 13:31 41.46723 13.51382 22647 ft 369 kts 276°
2026-05-06 13:31 41.47153 13.48005 22404 ft 367 kts 276°
2026-05-06 13:32 41.47578 13.44646 22157 ft 367 kts 276°
2026-05-06 13:32 41.47999 13.41302 21923 ft 365 kts 276°
2026-05-06 13:32 41.48418 13.37968 21685 ft 365 kts 276°
2026-05-06 13:32 41.48835 13.34635 21450 ft 364 kts 276°
2026-05-06 13:33 41.49250 13.31315 21210 ft 362 kts 276°
2026-05-06 13:33 41.49663 13.28002 20974 ft 362 kts 276°
2026-05-06 13:33 41.50075 13.24690 20742 ft 361 kts 276°
2026-05-06 13:33 41.50485 13.21389 20523 ft 360 kts 276°
2026-05-06 13:34 41.50891 13.18103 20278 ft 359 kts 276°
2026-05-06 13:34 41.51297 13.14820 20047 ft 358 kts 276°
2026-05-06 13:34 41.51700 13.11547 19801 ft 357 kts 276°
2026-05-06 13:34 41.52101 13.08282 19579 ft 356 kts 276°
2026-05-06 13:35 41.52501 13.05024 19347 ft 356 kts 276°
2026-05-06 13:35 41.52899 13.01768 19135 ft 355 kts 276°
2026-05-06 13:35 41.53295 12.98519 18912 ft 354 kts 275°
2026-05-06 13:35 41.53690 12.95279 18692 ft 353 kts 275°
2026-05-06 13:36 41.54091 12.92053 18468 ft 353 kts 278°
2026-05-06 13:36 41.54875 12.88931 18244 ft 357 kts 288°
2026-05-06 13:36 41.55760 12.85853 17988 ft 355 kts 287°
2026-05-06 13:36 41.56624 12.82765 17726 ft 354 kts 286°
2026-05-06 13:37 41.57491 12.79694 17467 ft 353 kts 289°
2026-05-06 13:37 41.58849 12.76963 17194 ft 360 kts 313°
2026-05-06 13:37 41.60999 12.75228 16920 ft 368 kts 339°
2026-05-06 13:37 41.63500 12.74473 16676 ft 370 kts 342°
2026-05-06 13:38 41.65955 12.73496 16420 ft 367 kts 339°
2026-05-06 13:38 41.68323 12.72323 16142 ft 360 kts 327°
2026-05-06 13:38 41.70155 12.70222 15873 ft 347 kts 303°
2026-05-06 13:38 41.71157 12.67343 15345 ft 340 kts 278°
2026-05-06 13:39 41.71148 12.64237 14867 ft 333 kts 255°
2026-05-06 13:39 41.70453 12.61323 14448 ft 330 kts 252°
2026-05-06 13:39 41.69804 12.58383 14012 ft 329 kts 252°
2026-05-06 13:39 41.69157 12.55513 13555 ft 329 kts 252°
2026-05-06 13:40 41.68454 12.52546 13035 ft 330 kts 248°
2026-05-06 13:40 41.67221 12.50001 12488 ft 329 kts 223°
2026-05-06 13:40 41.65229 12.48546 12004 ft 331 kts 195°
2026-05-06 13:40 41.62939 12.48575 11580 ft 340 kts 167°
2026-05-06 13:41 41.60739 12.49799 11037 ft 344 kts 159°
2026-05-06 13:41 41.58511 12.50862 10560 ft 340 kts 165°
2026-05-06 13:41 41.57009 12.51516 10237 ft 339 kts 165°
2026-05-06 13:41 41.54063 12.52768 9592 ft 336 kts 165°
2026-05-06 13:42 41.51876 12.53679 9094 ft 334 kts 165°
2026-05-06 13:42 41.49661 12.54602 8589 ft 332 kts 165°
2026-05-06 13:42 41.47454 12.55503 8195 ft 333 kts 168°
2026-05-06 13:42 41.45158 12.55769 7456 ft 335 kts 190°
2026-05-06 13:43 41.43050 12.54542 6959 ft 335 kts 219°
2026-05-06 13:43 41.42002 12.52974 6643 ft 338 kts 238°
2026-05-06 13:43 41.41267 12.49985 6216 ft 347 kts 262°
2026-05-06 13:43 41.41422 12.46820 5517 ft 356 kts 283°
2026-05-06 13:44 41.42582 12.43942 5011 ft 358 kts 310°
2026-05-06 13:44 41.44608 12.42075 4566 ft 357 kts 336°
2026-05-06 13:44 41.46994 12.41310 4124 ft 352 kts 348°
2026-05-06 13:44 41.49363 12.40570 3651 ft 346 kts 344°
2026-05-06 13:45 41.51674 12.39735 3190 ft 341 kts 342°
2026-05-06 13:45 41.55866 12.37356 2520 ft 321 kts 319°
2026-05-06 13:45 41.57525 12.35646 2565 ft 303 kts 322°
2026-05-06 13:46 41.58703 12.34490 2573 ft 291 kts 321°
2026-05-06 13:46 41.60776 12.32438 2566 ft 270 kts 321°
2026-05-06 13:46 41.62241 12.31006 2568 ft 254 kts 325°
2026-05-06 13:46 41.63791 12.30034 2549 ft 239 kts 341°
2026-05-06 13:47 41.65331 12.29427 2496 ft 225 kts 340°
2026-05-06 13:47 41.66799 12.28835 2231 ft 215 kts 339°
2026-05-06 13:47 41.68125 12.28281 2026 ft 189 kts 339°
2026-05-06 13:47 41.69328 12.27773 1716 ft 174 kts 340°
2026-05-06 13:48 41.70464 12.27294 1425 ft 171 kts 340°
2026-05-06 13:48 41.71600 12.26817 1131 ft 171 kts 341°
2026-05-06 13:48 41.72621 12.26382 1020 ft 170 kts 341°
2026-05-06 13:48 41.73716 12.25900 1001 ft 171 kts 339°
2026-05-06 13:49 41.74828 12.25393 805 ft 170 kts 343°
2026-05-06 13:49 41.75949 12.24930 532 ft 168 kts 339°
2026-05-06 13:49 41.77067 12.24476 328 ft 167 kts 342°
2026-05-06 13:49 41.78164 12.24037 59 ft 163 kts 341°
2026-05-06 13:50 41.79162 12.23593 22 ft 142 kts 342°
2026-05-06 13:50 41.80005 12.23265 25 ft 77 kts 343°
2026-05-06 13:50 41.80416 12.23203 20 ft 27 kts
2026-05-06 13:50 41.80523 12.23233 16 ft 17 kts 14°
2026-05-06 13:51 41.80616 12.23312 16 ft 14 kts 71°
2026-05-06 13:51 41.80585 12.23381 17 ft 8 kts 156°
2026-05-06 13:51 41.80536 12.23406 20 ft 7 kts 162°
2026-05-06 13:51 41.80485 12.23428 22 ft 8 kts 162°
2026-05-06 13:52 41.80418 12.23455 19 ft 13 kts 163°
2026-05-06 13:52 41.80295 12.23506 23 ft 24 kts 163°
2026-05-06 13:52 41.80110 12.23579 24 ft 33 kts 164°
2026-05-06 13:52 41.79891 12.23688 20 ft 18 kts 120°
2026-05-06 13:53 41.79914 12.23827 20 ft 15 kts 68°
2026-05-06 13:53 41.79958 12.23972 16 ft 20 kts 68°
2026-05-06 13:53 41.80000 12.24164 16 ft 23 kts 98°
2026-05-06 13:53 41.79952 12.24337 15 ft 20 kts 70°
2026-05-06 13:54 41.80003 12.24542 15 ft 25 kts 72°
2026-05-06 13:54 41.80067 12.24770 18 ft 28 kts 68°
2026-05-06 13:54 41.80098 12.25027 21 ft 29 kts 100°
2026-05-06 13:54 41.80038 12.25306 22 ft 33 kts 115°
2026-05-06 13:55 41.79929 12.25585 19 ft 35 kts 120°
2026-05-06 13:55 41.79818 12.25818 19 ft 0 kts 166°
2026-05-06 13:55 41.79792 12.25822 19 ft 10 kts 173°
2026-05-06 13:55 41.79713 12.25782 19 ft 17 kts 211°
2026-05-06 13:56 41.79604 12.25680 20 ft 5 kts 189°
2026-05-06 13:56 41.79579 12.25693 20 ft 4 kts 144°
2026-05-06 13:56 41.79562 12.25725 19 ft 5 kts 116°
2026-05-06 13:56 41.79557 12.25738 19 ft 3 kts 115°
2026-05-06 13:57 41.79556 12.25742 19 ft 0 kts 115°